Regional Weather Roundup
Issued by NWS Albany, NY

Home | Current Version | Previous Version | Text Only | Print | Product List | Glossary On
Versions: 1 2 3 4 5 6 7 8 9 10 11 12 13 14 15 16 17 18 19 20 21 22 23 24 25 26 27
000
ASUS41 KALY 151610
RWRALY

NEW YORK STATE HOURLY WEATHER ROUNDUP
NATIONAL WEATHER SERVICE ALBANY NY
1200 PM EDT TUE AUG 15 2017

NOTE: "FAIR" INDICATES FEW OR NO CLOUDS BELOW 12,000 FEET WITH NO
SIGNIFICANT WEATHER AND/OR NO OBSTRUCTIONS TO VISIBILITY.

NYZ032-033-038>043-046>054-057>066-NYZ062>081-082-084-151700-
EAST


CITY           SKY/WX    TMP DP  RH WIND       PRES   REMARKS
ALBANY         CLOUDY    75  65  70 S7        29.90F
GLENS FALLS    PTSUNNY   76  64  66 VRB6      29.88
POUGHKEEPSIE   CLOUDY    74  66  76 VRB3      29.91F
NEWBURGH       CLOUDY    72  68  88 CALM      29.94F
MONTGOMERY     CLOUDY    72  66  81 S3        29.93S
WHITE PLAINS   CLOUDY    72  66  81 SE6       29.93F
ISLIP          CLOUDY    75  68  78 SE10      29.93F
NEW YORK CITY  CLOUDY    75  70  84 VRB6      29.92S
CENTRAL PARK   CLOUDY    73  70  90 CALM      29.95F FOG
$$

NYZ005>009-017-018-044>046-055-056-151700-
CENTRAL


CITY           SKY/WX    TMP DP  RH WIND       PRES   REMARKS
FULTON         PTSUNNY   79  65  62 CALM      29.86F
SYRACUSE       PTSUNNY   79  64  60 SW7       29.85F
ROME           MOSUNNY   79  65  62 CALM      29.88F
ELMIRA         SUNNY     81  65  58 S6        29.88F
BINGHAMTON     CLOUDY    73  64  73 W6        29.92F
MONTICELLO     CLOUDY    69  65  86 SW7       29.97F
$$

NYZ026>034-041>043-087-151700-
NORTH


CITY           SKY/WX    TMP DP  RH WIND       PRES   REMARKS
WATERTOWN      MOSUNNY   76  67  73 SW7       29.86F
FORT DRUM      NOT AVBL
OGDENSBURG     FAIR      78  66  66 SW5       29.84S
MASSENA        MOSUNNY   76  69  79 W8        29.84F
SARANAC LAKE   PTSUNNY   75  61  61 MISG      29.88F
PLATTSBURGH    PTSUNNY   73  63  70 SE12      29.84F
$$

NYZ001>004-010>016-019>021-085-151700-
WEST


CITY           SKY/WX    TMP DP  RH WIND       PRES   REMARKS
NIAGARA FALLS  CLOUDY    78  66  66 SW14      29.86S
BUFFALO        PTSUNNY   76  65  68 W12       29.87S
DUNKIRK        SUNNY     81  65  58 W9        29.88F
JAMESTOWN      PTSUNNY   75  63  64 W12       29.94F
WELLSVILLE     SUNNY     78  58  49 W8        29.96S
ROCHESTER      PTSUNNY   79  64  60 NW9       29.87S
PENN YAN       PTSUNNY   80  62  54 SW5       29.89F
$$

             KEY
       WCI = WIND CHILL INDEX
       VSB = VISIBILITY
       HX  = HEAT INDEX
$$




USA.gov is the U.S. government's official web portal to all federal, state and local government web resources and services.